When you browse on this site, cookies collect data to enhance your experience and personalize the content and advertising you see.
Visit our Privacy Policy to learn more. By continuing to use the site, you agree to this use of cookies and data.
  • Em Portugal
  • Lista de países
  • Para 7 dias
  • Temperatura da água
  • Mapas de satélite
  • Mapa do tempo
  • Widgets de tempo
  • user-avatar
    Iniciar Sessão

    Previsão horária em Chrustowice

    Hoje, 25 Março, Segunda-feira

    Tempo Temperatura Precipitação Vento Pressão Humidade
    00:00 +8°C° 0.3 mm 1 m/s 743 mmHg 63%
    01:00 +7°C° 0 mm 0 m/s 742 mmHg 69%
    02:00 +8°C° 0.2 mm 1 m/s 742 mmHg 72%
    03:00 +7°C° 0.2 mm 1 m/s 741 mmHg 75%
    04:00 +6°C° 0.2 mm 2 m/s 741 mmHg 78%
    05:00 +6°C° 0 mm 2 m/s 741 mmHg 76%
    06:00 +6°C° 0 mm 2 m/s 740 mmHg 75%
    07:00 +7°C° 0 mm 3 m/s 740 mmHg 73%
    08:00 +8°C° 0.1 mm 3 m/s 740 mmHg 66%
    09:00 +8°C° 0.1 mm 4 m/s 740 mmHg 58%
    10:00 +8°C° 0.1 mm 4 m/s 739 mmHg 50%
    11:00 +10°C° 0.1 mm 4 m/s 739 mmHg 47%
    12:00 +9°C° 0.1 mm 5 m/s 739 mmHg 44%
    13:00 +10°C° 0.1 mm 5 m/s 738 mmHg 42%
    14:00 +9°C° 0.1 mm 5 m/s 738 mmHg 44%
    15:00 +8°C° 0.1 mm 5 m/s 738 mmHg 47%
    16:00 +8°C° 0.1 mm 5 m/s 738 mmHg 50%
    17:00 +7°C° 0.1 mm 4 m/s 739 mmHg 54%
    18:00 +6°C° 0.1 mm 4 m/s 739 mmHg 58%
    19:00 +7°C° 0.1 mm 3 m/s 739 mmHg 62%
    20:00 +5°C° 0.1 mm 3 m/s 740 mmHg 67%
    21:00 +4°C° 0.1 mm 4 m/s 740 mmHg 72%
    22:00 +3°C° 0.1 mm 4 m/s 741 mmHg 77%
    23:00 +3°C° 0.1 mm 4 m/s 742 mmHg 79%

    Amanhã, 26 Março, Terça-feira

    Tempo Temperatura Precipitação Vento Pressão Humidade
    00:00 +3°C° 0.1 mm 4 m/s 742 mmHg 81%
    01:00 +1°C° 0.1 mm 4 m/s 743 mmHg 84%
    02:00 +1°C° 0.1 mm 4 m/s 743 mmHg 85%
    03:00 +1°C° 0.1 mm 4 m/s 744 mmHg 86%
    04:00 +1°C° 0.1 mm 4 m/s 744 mmHg 87%
    05:00 +1°C° 0 mm 4 m/s 744 mmHg 85%
    06:00 +1°C° 0 mm 4 m/s 745 mmHg 83%
    07:00 +1°C° 0 mm 5 m/s 746 mmHg 80%
    08:00 +2°C° 0 mm 5 m/s 746 mmHg 73%
    09:00 +3°C° 0 mm 5 m/s 746 mmHg 66%
    10:00 +5°C° 0 mm 6 m/s 746 mmHg 59%
    11:00 +5°C° 0 mm 6 m/s 746 mmHg 56%
    12:00 +6°C° 0 mm 7 m/s 745 mmHg 53%
    13:00 +6°C° 0 mm 7 m/s 745 mmHg 50%
    14:00 +6°C° 0.1 mm 8 m/s 745 mmHg 49%
    15:00 +6°C° 0.1 mm 8 m/s 744 mmHg 49%
    16:00 +6°C° 0.1 mm 9 m/s 744 mmHg 49%
    17:00 +5°C° 0.1 mm 9 m/s 744 mmHg 53%
    18:00 +4°C° 0.1 mm 8 m/s 745 mmHg 58%
    19:00 +2°C° 0.1 mm 8 m/s 745 mmHg 62%
    20:00 +2°C° 0.1 mm 7 m/s 746 mmHg 63%
    21:00 +2°C° 0.1 mm 7 m/s 747 mmHg 65%
    22:00 +2°C° 0.1 mm 7 m/s 747 mmHg 67%
    23:00 -1°C° 0 mm 6 m/s 748 mmHg 64%

    Depois de amanhã, 27 Março, Quarta-feira

    Tempo Temperatura Precipitação Vento Pressão Humidade
    00:00 -1°C° 0 mm 4 m/s 748 mmHg 62%
    01:00 -1°C° 0 mm 3 m/s 749 mmHg 59%
    02:00 -2°C° 0 mm 3 m/s 749 mmHg 61%
    03:00 -2°C° 0 mm 3 m/s 749 mmHg 63%
    04:00 -2°C° 0 mm 3 m/s 750 mmHg 65%
    05:00 -2°C° 0 mm 3 m/s 750 mmHg 62%
    06:00 -1°C° 0 mm 3 m/s 751 mmHg 59%
    07:00 -1°C° 0 mm 3 m/s 751 mmHg 56%
    08:00 +1°C° 0 mm 3 m/s 751 mmHg 50%
    09:00 +2°C° 0 mm 3 m/s 752 mmHg 43%
    10:00 +4°C° 0 mm 3 m/s 752 mmHg 37%
    11:00 +5°C° 0 mm 3 m/s 752 mmHg 34%
    12:00 +7°C° 0 mm 3 m/s 752 mmHg 32%
    13:00 +8°C° 0 mm 3 m/s 752 mmHg 29%
    14:00 +8°C° 0 mm 3 m/s 752 mmHg 31%
    15:00 +8°C° 0 mm 3 m/s 752 mmHg 34%
    16:00 +8°C° 0 mm 3 m/s 752 mmHg 37%
    17:00 +7°C° 0 mm 3 m/s 752 mmHg 44%
    18:00 +6°C° 0 mm 2 m/s 752 mmHg 52%
    19:00 +5°C° 0 mm 2 m/s 753 mmHg 59%
    20:00 +6°C° 0 mm 1 m/s 753 mmHg 62%
    21:00 +6°C° 0 mm 1 m/s 753 mmHg 65%
    22:00 +6°C° 0 mm 1 m/s 754 mmHg 67%
    23:00 +5°C° 0.1 mm 1 m/s 754 mmHg 70%

    28 Março, Quinta-feira

    Tempo Temperatura Precipitação Vento Pressão Humidade
    00:00 +5°C° 0.1 mm 1 m/s 754 mmHg 72%
    01:00 +4°C° 0.1 mm 2 m/s 754 mmHg 75%
    02:00 +4°C° 0 mm 2 m/s 754 mmHg 76%
    03:00 +5°C° 0 mm 1 m/s 754 mmHg 78%
    04:00 +5°C° 0 mm 1 m/s 754 mmHg 79%
    05:00 +5°C° 0 mm 1 m/s 754 mmHg 78%
    06:00 +4°C° 0 mm 2 m/s 754 mmHg 77%
    07:00 +5°C° 0 mm 2 m/s 754 mmHg 75%
    08:00 +6°C° 0 mm 2 m/s 755 mmHg 72%
    09:00 +8°C° 0 mm 2 m/s 755 mmHg 68%
    10:00 +9°C° 0 mm 2 m/s 755 mmHg 64%
    11:00 +9°C° 0.2 mm 2 m/s 755 mmHg 64%
    12:00 +10°C° 0.2 mm 2 m/s 755 mmHg 64%
    13:00 +10°C° 0.2 mm 2 m/s 755 mmHg 64%
    14:00 +10°C° 0.3 mm 2 m/s 755 mmHg 66%
    15:00 +10°C° 0.3 mm 2 m/s 754 mmHg 67%
    16:00 +10°C° 0.3 mm 2 m/s 754 mmHg 69%
    17:00 +10°C° 0 mm 1 m/s 754 mmHg 73%
    18:00 +9°C° 0 mm 1 m/s 755 mmHg 78%
    19:00 +7°C° 0 mm 0 m/s 755 mmHg 83%
    20:00 +6°C° 0 mm 0 m/s 755 mmHg 84%
    21:00 +6°C° 0 mm 0 m/s 755 mmHg 86%
    22:00 +5°C° 0 mm 0 m/s 756 mmHg 88%
    23:00 +5°C° 0 mm 0 m/s 756 mmHg 88%

    29 Março, Sexta-feira

    Tempo Temperatura Precipitação Vento Pressão Humidade
    00:00 +6°C° 0 mm 1 m/s 756 mmHg 89%
    01:00 +6°C° 0 mm 1 m/s 756 mmHg 90%
    02:00 +5°C° 0 mm 1 m/s 756 mmHg 91%
    03:00 +5°C° 0 mm 1 m/s 756 mmHg 92%
    04:00 +5°C° 0 mm 1 m/s 756 mmHg 92%
    05:00 +6°C° 0 mm 1 m/s 756 mmHg 91%
    06:00 +6°C° 0 mm 1 m/s 756 mmHg 90%
    07:00 +6°C° 0 mm 1 m/s 756 mmHg 89%
    08:00 +8°C° 0 mm 1 m/s 756 mmHg 81%
    09:00 +9°C° 0 mm 2 m/s 756 mmHg 74%
    10:00 +10°C° 0 mm 2 m/s 756 mmHg 67%
    11:00 +12°C° 0 mm 2 m/s 756 mmHg 63%
    12:00 +12°C° 0 mm 2 m/s 755 mmHg 59%
    13:00 +13°C° 0 mm 2 m/s 755 mmHg 55%
    14:00 +13°C° 0 mm 2 m/s 755 mmHg 56%
    15:00 +13°C° 0 mm 2 m/s 754 mmHg 57%
    16:00 +12°C° 0 mm 2 m/s 754 mmHg 58%
    17:00 +10°C° 0 mm 2 m/s 754 mmHg 63%
    18:00 +9°C° 0 mm 2 m/s 754 mmHg 67%
    19:00 +9°C° 0 mm 1 m/s 754 mmHg 71%
    20:00 +8°C° 0 mm 1 m/s 754 mmHg 73%
    21:00 +8°C° 0 mm 1 m/s 754 mmHg 76%
    22:00 +7°C° 0 mm 1 m/s 754 mmHg 78%
    23:00 +7°C° 0 mm 1 m/s 754 mmHg 79%

    30 Março, Sábado

    Tempo Temperatura Precipitação Vento Pressão Humidade
    00:00 +7°C° 0 mm 1 m/s 753 mmHg 80%
    01:00 +6°C° 0 mm 1 m/s 753 mmHg 82%
    02:00 +6°C° 0 mm 1 m/s 753 mmHg 83%
    03:00 +6°C° 0 mm 1 m/s 753 mmHg 85%
    04:00 +5°C° 0 mm 1 m/s 753 mmHg 87%
    05:00 +6°C° 0 mm 1 m/s 753 mmHg 84%
    06:00 +6°C° 0 mm 1 m/s 753 mmHg 81%
    07:00 +7°C° 0 mm 1 m/s 752 mmHg 78%
    08:00 +9°C° 0 mm 1 m/s 752 mmHg 71%
    09:00 +11°C° 0 mm 1 m/s 752 mmHg 64%
    10:00 +12°C° 0 mm 1 m/s 752 mmHg 57%
    11:00 +13°C° 0 mm 1 m/s 751 mmHg 53%
    12:00 +14°C° 0 mm 1 m/s 750 mmHg 49%
    13:00 +15°C° 0 mm 1 m/s 750 mmHg 44%
    14:00 +16°C° 0 mm 1 m/s 749 mmHg 43%
    15:00 +16°C° 0 mm 1 m/s 749 mmHg 42%
    16:00 +16°C° 0 mm 1 m/s 748 mmHg 41%
    17:00 +14°C° 0 mm 1 m/s 748 mmHg 45%
    18:00 +13°C° 0 mm 1 m/s 747 mmHg 50%
    19:00 +11°C° 0 mm 1 m/s 747 mmHg 54%
    20:00 +11°C° 0 mm 1 m/s 747 mmHg 56%
    21:00 +10°C° 0 mm 1 m/s 747 mmHg 58%
    22:00 +9°C° 0 mm 2 m/s 747 mmHg 60%
    23:00 +8°C° 0 mm 2 m/s 746 mmHg 62%
    Mostrar mais